DW6885 Weather Reports


Display with metric or nautical units.
time (UTC)temp
F
wind
direction
speed
MPH
gust
MPH
rain 1hr
in
rain 24hr
in
rain mn
in
humidity
%
barometer
mb
20141024124007 43 20 0.0 6.0 0.00 0.94 0.18 99 1006.2
20141024123555 44 334 2.0 6.0 0.00 0.89 0.14 99 1006.1
20141024122508 43 327 0.0 7.0 0.00 0.94 0.18 99 1006.1
20141024121556 44 47 1.0 8.0 0.00 0.97 0.14 99 1006.1
20141024121007 43 240 2.0 8.0 0.00 0.94 0.18 99 1006.0
20141024120555 44 338 0.0 5.0 0.00 1.00 0.14 99 1006.1
20141024115557 44 279 1.0 3.0 0.00 1.03 0.14 99 1006.1
20141024115509 44 288 0.0 4.0 0.00 0.94 0.18 99 1006.1
20141024114557 44 300 1.0 3.0 0.01 1.06 0.14 99 1006.1
20141024114009 44 287 0.0 4.0 0.02 1.11 0.18 99 1006.1
20141024113556 44 47 1.0 3.0 0.02 1.08 0.14 99 1006.1
20141024112557 44 223 1.0 3.0 0.03 1.11 0.14 99 1006.1
20141024112505 44 223 0.0 3.0 0.03 1.11 0.18 99 1006.1
20141024111557 45 34 0.0 3.0 0.04 1.13 0.14 99 1006.0
20141024111006 44 36 0.0 1.0 0.04 1.11 0.18 99 1005.9
20141024110556 45 36 0.0 1.0 0.05 1.15 0.14 99 1005.9
20141024105558 45 36 0.0 1.0 0.05 1.16 0.14 99 1005.9
20141024105410 44 36 0.0 1.0 0.05 1.11 0.18 99 1005.9
20141024104008 44 36 0.0 2.0 0.04 1.24 0.16 99 1005.9
20141024102555 45 42 1.0 6.0 0.04 1.22 0.11 99 1005.9
20141024102409 44 57 0.0 6.0 0.04 1.23 0.15 99 1005.9
20141024101557 45 298 1.0 3.0 0.04 1.24 0.10 99 1006.0
20141024100904 44 46 0.0 3.0 0.04 1.22 0.14 99 1005.8
20141024100556 45 308 1.0 3.0 0.04 1.32 0.09 99 1005.7
20141024095404 44 66 0.0 4.0 0.05 1.21 0.13 99 1005.7
20141024094556 45 292 1.0 8.0 0.04 1.40 0.08 99 1005.5
20141024093908 45 309 1.0 6.0 0.04 1.50 0.12 99 1005.5
20141024093556 45 317 0.0 6.0 0.04 1.43 0.08 99 1005.5
20141024092404 45 27 0.0 6.0 0.04 1.49 0.11 99 1005.5
20141024091005 45 20 0.0 2.0 0.04 1.48 0.10 99 1005.4
20141024085556 45 29 1.0 3.0 0.03 1.62 0.05 99 1005.4
20141024085405 45 29 0.0 5.0 0.02 1.46 0.08 99 1005.4
20141024084556 46 67 1.0 3.0 0.03 1.68 0.04 99 1005.4
20141024083806 45 346 1.0 4.0 0.03 1.81 0.08 99 1005.4
20141024082557 46 311 1.0 5.0 0.02 1.79 0.03 99 1005.3
20141024082305 45 311 2.0 5.0 0.02 1.80 0.07 99 1005.4
20141024080807 45 355 0.0 1.0 0.01 1.79 0.06 99 1005.4
20141024080557 46 355 0.0 0.0 0.01 1.85 0.02 99 1005.4
20141024075308 46 355 0.0 2.0 0.01 1.79 0.06 99 1005.3
20141024073904 46 15 0.0 4.0 0.00 1.91 0.05 99 1005.1
20141024073558 46 4 1.0 5.0 0.00 1.90 0.01 99 1005.0
20141024072612 46 341 0.0 6.0 0.00 1.92 0.01 99 1005.1
20141024072305 46 342 0.0 6.0 0.00 1.91 0.05 99 1005.0
20141024071641 46 338 1.0 3.0 0.00 1.94 0.01 99 1005.2
20141024070805 46 78 1.0 5.0 0.00 1.91 0.05 99 1005.2
20141024070727 46 42 0.0 5.0 0.00 2.02 0.01 99 1005.2
20141024065404 46 335 1.0 5.0 0.00 1.91 0.05 99 1005.4
20141024064617 47 302 1.0 5.0 0.00 2.19 0.01 99 1005.3
20141024063806 47 313 0.0 5.0 0.00 2.27 0.05 99 1005.5
20141024063614 47 319 1.0 5.0 0.01 2.23 0.01 99 1005.5
20141024062304 47 15 0.0 4.0 0.01 2.27 0.05 99 1005.7
20141024060904 47 82 0.0 4.0 0.01 2.27 0.05 99 1005.6
20141024055624 47 21 1.0 6.0 0.01 2.32 0.01 99 1005.5
20141024055304 47 321 0.0 5.0 0.01 2.27 0.05 99 1005.6
20141024054626 47 340 2.0 6.0 0.01 2.32 0.01 99 1005.7
20141024053707 47 55 0.0 3.0 0.01 2.35 0.05 99 1005.6
20141024052204 47 341 1.0 5.0 0.00 2.34 0.04 99 1005.7
20141024051618 47 147 0.0 3.0 0.00 2.34 0.00 99 1005.7
20141024050804 47 355 0.0 3.0 0.00 2.34 0.04 99 1005.7
20141024050731 47 355 0.0 3.0 0.00 2.36 0.00 99 1005.6
20141024045618 47 277 0.0 5.0 0.00 2.38 0.00 99 1005.6
20141024045205 47 277 0.0 5.0 0.00 2.34 0.04 99 1005.6
20141024043804 47 257 1.0 7.0 0.00 2.49 0.04 100 1005.5
20141024043728 47 317 1.0 3.0 0.00 2.42 0.00 100 1005.4
20141024042605 47 117 1.0 6.0 0.00 2.46 0.00 100 1005.6
20141024042204 47 25 0.0 6.0 0.00 2.49 0.04 100 1005.5
20141024041610 47 41 1.0 3.0 0.00 2.51 0.00 100 1005.5
20141024040804 47 322 1.0 7.0 0.00 2.49 0.04 100 1005.5
20141024040728 47 234 1.0 7.0 0.00 2.54 0.00 100 1005.5
20141024035557 47 278 1.0 5.0 0.00 2.56 2.43 100 1005.7
20141024035304 47 350 1.0 4.0 0.00 2.49 0.04 100 1005.6
20141024034557 47 205 1.0 3.0 0.00 2.57 2.43 99 1005.8
20141024033707 47 150 0.0 3.0 0.00 2.57 0.04 100 1006.0
20141024032557 48 354 1.0 5.0 0.01 2.57 2.43 100 1006.1
20141024032112 47 216 1.0 6.0 0.01 2.57 0.04 100 1006.0
20141024031556 48 96 1.0 6.0 0.01 2.57 2.43 100 1006.1
20141024030604 47 144 2.0 6.0 0.01 2.57 0.04 100 1006.0
20141024025111 47 257 1.0 5.0 0.01 2.57 0.04 100 1005.8
20141024024556 47 25 2.0 6.0 0.01 2.59 2.43 100 1005.9
20141024023703 47 57 0.0 6.0 0.01 2.60 0.04 100 1005.9
20141024022556 47 177 0.0 2.0 0.00 2.58 2.42 100 1006.1
20141024022105 47 166 0.0 3.0 0.00 2.59 0.03 100 1006.1
20141024021557 47 38 1.0 5.0 0.00 2.59 2.42 100 1006.0
20141024020704 47 321 0.0 3.0 0.00 2.59 0.03 100 1005.9
20141024020556 47 275 1.0 3.0 0.00 2.60 2.42 100 1005.9
20141024015556 47 5 1.0 5.0 0.00 2.60 2.42 100 1005.8
20141024015108 47 96 0.0 7.0 0.00 2.59 0.03 100 1005.9
20141024014556 47 67 2.0 7.0 0.00 2.61 2.42 100 1006.1
20141024013707 47 100 0.0 6.0 0.00 2.62 0.03 100 1006.2
20141024013556 47 103 1.0 5.0 0.00 2.61 2.42 100 1006.2
20141024012105 47 159 1.0 5.0 0.01 2.62 0.03 100 1006.1
20141024011556 47 172 1.0 3.0 0.01 2.62 2.42 100 1006.2
20141024010505 47 36 1.0 7.0 0.01 2.62 0.03 100 1006.2
20141024005559 47 148 1.0 6.0 0.01 2.64 2.42 100 1006.3
20141024005007 47 120 1.0 10.0 0.01 2.65 0.03 100 1006.3
20141024004558 47 22 1.0 6.0 0.01 2.64 2.42 100 1006.4
20141024003557 47 196 2.0 8.0 0.01 2.65 2.42 100 1006.4
20141024003506 47 288 1.0 8.0 0.01 2.65 0.03 100 1006.4
20141024002557 47 127 0.0 5.0 0.00 2.64 2.41 100 1006.3
20141024002007 47 57 1.0 7.0 0.01 2.64 0.02 100 1006.3
20141024000557 47 161 1.0 6.0 0.01 2.65 2.41 99 1006.3
20141024000507 47 223 0.0 6.0 0.01 2.64 0.02 99 1006.3
20141023235557 47 166 1.0 7.0 0.01 2.65 2.41 99 1006.3
20141023235005 47 254 1.0 7.0 0.02 2.68 0.02 99 1006.3
20141023233504 47 325 0.0 4.0 0.02 2.68 0.02 99 1006.2
20141023232557 47 304 1.0 12.0 0.02 2.67 2.41 99 1006.2
20141023232010 47 167 1.0 6.0 0.02 2.67 0.01 99 1006.3
20141023231557 47 178 1.0 7.0 0.02 2.67 2.40 99 1006.3
20141023230556 47 18 1.0 5.0 0.02 2.68 2.40 99 1006.3
20141023230409 47 38 0.0 6.0 0.02 2.67 0.01 99 1006.3
20141023224905 47 81 1.0 6.0 0.01 2.71 2.66 100 1006.1
20141023224558 47 358 1.0 3.0 0.01 2.69 2.39 100 1006.1
20141023223405 47 355 0.0 7.0 0.02 2.71 2.66 100 1005.8
20141023222558 48 110 1.0 3.0 0.02 2.71 2.39 100 1005.8
20141023221906 47 11 1.0 4.0 0.01 2.70 2.65 100 1005.7
20141023221557 48 184 0.0 6.0 0.01 2.70 2.38 100 1005.7
20141023220557 48 348 1.0 5.0 0.01 2.72 2.38 100 1005.5
20141023220406 47 5 0.0 5.0 0.01 2.70 2.65 100 1005.5
20141023214904 47 216 2.0 12.0 0.01 2.77 2.65 100 1005.5
20141023213409 47 22 3.0 10.0 0.01 2.76 2.64 100 1005.2
20141023212559 48 91 1.0 9.0 0.01 2.75 2.37 100 1005.1
20141023211910 47 90 2.0 10.0 0.02 2.76 2.64 100 1005.1
20141023211556 48 70 3.0 7.0 0.02 2.76 2.37 99 1005.0
20141023210557 48 84 1.0 8.0 0.02 2.77 2.37 99 1004.9
20141023210407 47 84 1.0 8.0 0.02 2.76 2.64 99 1004.9
20141023204805 47 333 1.0 7.0 0.02 2.79 2.63 99 1005.0
20141023204556 48 125 1.0 10.0 0.02 2.77 2.36 99 1004.9
20141023203558 48 41 2.0 6.0 0.02 2.78 2.36 99 1004.9
20141023203306 48 22 1.0 6.0 0.02 2.79 2.63 99 1004.8
20141023202556 48 136 3.0 9.0 0.02 2.79 2.36 99 1004.9
20141023201803 48 76 0.0 5.0 0.01 2.78 2.62 99 1004.9
20141023200309 48 209 1.0 10.0 0.01 2.78 2.62 100 1004.9
20141023195557 48 28 3.0 8.0 0.01 2.80 2.35 100 1004.8
20141023194807 48 121 1.0 8.0 0.01 2.81 2.61 100 1004.8
20141023194557 48 57 1.0 8.0 0.01 2.79 2.34 100 1004.8
20141023193555 48 196 1.0 9.0 0.01 2.80 2.34 100 1004.7
20141023193306 48 117 1.0 9.0 0.01 2.81 2.61 100 1004.7
20141023192558 48 9 1.0 7.0 0.01 2.81 2.34 100 1004.7
20141023191808 48 95 1.0 6.0 0.01 2.81 2.61 100 1004.6
20141023191556 48 3 2.0 6.0 0.01 2.82 2.34 100 1004.6
20141023190404 48 37 1.0 8.0 0.02 2.81 2.61 100 1004.6
20141023184709 48 207 2.0 8.0 0.01 2.84 2.60 100 1004.4
20141023184556 48 22 1.0 8.0 0.01 2.84 2.33 100 1004.5
20141023183556 48 184 1.0 8.0 0.02 2.84 2.33 100 1004.4
20141023183208 48 59 0.0 8.0 0.02 2.84 2.60 100 1004.5
20141023182556 48 87 3.0 8.0 0.02 2.84 2.33 99 1004.5
20141023181707 48 196 1.0 8.0 0.02 2.84 2.60 100 1004.4
20141023181557 49 43 3.0 8.0 0.02 2.84 2.33 100 1004.5
20141023180555 49 337 2.0 8.0 0.01 2.84 2.32 100 1004.4
20141023180209 48 156 3.0 8.0 0.01 2.83 2.59 100 1004.5
20141023175555 49 244 3.0 8.0 0.01 2.84 2.32 100 1004.7
20141023174710 48 240 1.0 5.0 0.01 2.85 2.59 100 1004.7
20141023174600 49 123 2.0 6.0 0.01 2.85 2.32 100 1004.8
20141023173556 48 218 1.0 12.0 0.00 2.84 2.31 100 1004.9
20141023173208 48 335 1.0 11.0 0.00 2.84 2.58 100 1004.8
20141023172557 48 43 2.0 5.0 0.00 2.84 2.31 100 1004.8
20141023171705 47 242 0.0 10.0 0.00 2.84 2.58 100 1004.9
20141023171557 48 124 3.0 12.0 0.00 2.84 2.31 100 1004.9
20141023170556 48 36 1.0 10.0 0.00 2.85 2.31 100 1005.0
20141023170205 47 42 0.0 10.0 0.00 2.84 2.58 100 1005.1
20141023165556 48 291 1.0 9.0 0.00 2.85 2.31 100 1005.0
20141023164704 47 78 1.0 8.0 0.00 2.87 2.58 100 1004.9
20141023164556 48 86 1.0 8.0 0.00 2.86 2.31 100 1005.0
20141023163556 48 40 1.0 13.0 0.00 2.86 2.31 100 1005.1
20141023163304 47 76 1.0 13.0 0.00 2.87 2.58 100 1005.0
20141023162556 48 45 2.0 13.0 0.01 2.87 2.31 100 1005.1
20141023161608 47 220 0.0 12.0 0.01 2.87 2.58 100 1005.1
20141023160107 47 148 2.0 16.0 0.01 2.87 2.58 100 1005.2
20141023155555 47 5 3.0 16.0 0.02 2.88 2.31 100 1005.5
20141023154605 47 130 2.0 7.0 0.02 2.88 2.58 100 1005.6
20141023153556 47 78 3.0 9.0 0.03 2.88 2.31 100 1005.6
20141023153107 47 252 3.0 9.0 0.04 2.88 2.58 100 1005.1
20141023151608 47 55 1.0 8.0 0.09 2.87 2.57 100 1005.6
20141023150555 47 18 2.0 7.0 0.13 2.87 2.30 100 1005.5
20141023150106 46 36 3.0 7.0 0.15 2.87 2.57 100 1005.9
20141023144605 46 43 0.0 6.0 0.19 2.88 2.56 100 1006.4
20141023144556 46 43 2.0 9.0 0.19 2.86 2.29 100 1006.4
20141023143007 46 257 0.0 6.0 0.19 2.85 2.52 100 1006.7
20141023142555 46 296 1.0 7.0 0.19 2.83 2.25 100 1006.7
20141023141557 46 137 1.0 8.0 0.16 2.79 2.20 100 1006.6
20141023141507 46 134 0.0 5.0 0.17 2.80 2.48 100 1006.6
20141023140556 46 32 1.0 8.0 0.18 2.76 2.17 100 1006.5
20141023140009 46 230 1.0 7.0 0.19 2.74 2.42 100 1006.5
20141023135558 46 101 3.0 7.0 0.20 2.72 2.13 100 1006.4
20141023134507 46 79 0.0 4.0 0.21 2.70 2.37 100 1006.6
20141023133005 45 164 0.0 4.0 0.26 2.67 2.34 100 1006.5
20141023132556 46 49 0.0 3.0 0.27 2.65 2.06 100 1006.5
20141023131804 45 20 0.0 4.0 0.28 2.65 2.31 100 1006.6
20141023131557 46 25 0.0 8.0 0.30 2.64 2.04 100 1006.6
20141023130557 46 84 0.0 3.0 0.30 2.59 1.99 100 1006.8
20141023130009 45 36 0.0 2.0 0.28 2.56 2.23 100 1006.8